User: anonymous   Login
Location: Unspecified
(0.0000°N, 0.0000°E)
Time: 13:09:36
(UTC+02:00)
Language:

Cosmos 1437 - Orbit

View from above orbital plane
View from above orbital plane
View from above satellite
View from above satellite

Ground track
Ground track

The orbit data is extracted from the following two-line orbital elements,

1 13770U 83003A   16204.17951835  .00005580  00000-0  10898-3 0  9991
2 13770  81.1582 192.4926 0006833 354.6133   5.5038 15.47232849835421
Epoch (UTC): 22 July 2016 04:18:30
Eccentricity: 0.0006833
inclination: 81.1582°
perigee height: 420 km
apogee height: 429 km
right ascension of ascending node: 192.4926°
argument of perigee: 354.6133°
revolutions per day: 15.47232849
mean anomaly at epoch: 5.5038°
orbit number at epoch: 83542

The dashed part of the orbit path shows where the satellite is in the earth's shadow,  

DLR